Retour au catalogue

STARLINK-33815

ActifCommunicationsVLEO
NORAD 63497·PAYLOAD·🇺🇸 United States

Lancé Apr 7, 2025 depuis Vandenberg Space Force Base

Loading…

Prochains Passages (prochaines 24 heures)

TLE

FraisSource: CelesTrak SupGP

Époque: Sep 14, 2026, 21:31 UTC

1 63497C 25071E   26257.89701389 -.00019101  00000+0 -61439-3 0  2577
2 63497  53.1605 340.0101 0001190  79.4630 274.0835 15.31702925    15

Suivez STARLINK-33815 en temps réel avec AllMySat

Download on the App Store